Simultaneous Nadir Overpasses (SNOs) Predictions

Prediction of SNOs between GOES-16 and NPP Satellite Orbit:

Table of predicted SNOs for the next 14.0 days since TLE Epoch: 1/13/2024
Index Date Time (GOES-16) GOES-16 Lat,Lon NPP Lat,Lon Distance(km) Time Diff (sec)
1 01/13/2024 18:23:41 0.04, -75.22 0.27, -74.27 108.26 80
2 01/15/2024 06:45:29 -0.04, -75.22 0.91, -79.54 492.39 80
3 01/16/2024 06:24:05 -0.04, -75.23 -0.09, -75.01 24.75 80
4 01/18/2024 18:27:18 0.04, -75.27 -0.08, -75.79 59.86 80
5 01/19/2024 18:11:13 0.03, -75.28 0.93, -71.26 457.97 80
6 01/21/2024 06:33:01 -0.03, -75.29 0.24, -76.53 141.06 80
7 01/22/2024 06:11:37 -0.02, -75.31 -0.76, -72.00 376.94 80
8 01/23/2024 18:33:33 0.01, -75.34 -0.44, -77.30 224.14 80
9 01/24/2024 18:17:29 -0.01, -75.36 0.57, -72.77 294.67 80
10 01/26/2024 06:39:17 0.02, -75.38 0.59, -78.05 302.74 80
